Weather History for Fairmont, MN

Change the Weather History Date:

Monday, December 3, 2012

  Actual Average Record
Temperature  
Mean Temperature 46 °F -  
Max Temperature 57 °F 28 °F 62 °F (1998)
Min Temperature 35 °F 13 °F -15 °F (1985)
Degree Days  
Heating Degree Days 19    
Moisture  
Dew Point 38 °F    
Average Humidity 70    
Maximum Humidity 94    
Minimum Humidity 46    
Precipitation  
Precipitation 0.00 in - - ()
Sea Level Pressure  
Sea Level Pressure 29.74 in    
Wind  
Wind Speed 17 mph (WSW)    
Max Wind Speed 26 mph    
Max Gust Speed 30 mph    
Visibility 7 miles    
Events      
Averages and records for this station are not official NWS values.
T = Trace of Precipitation, MM = Missing Value Source: NWS Daily Summary

Daily Weather History Graph

Daily Weather History Graph

Search for Another Location

Airport:

Trip Planner

Search our weather history database for the weather conditions in past years. The results will help you decide how hot, cold, wet, or windy it might be!

Date:

Astronomy

Dec. 03, 2012 Rise Set
Actual Time 7:33 AM CST 4:41 PM CST
Civil Twilight 7:01 AM CST 5:13 PM CST
Nautical Twilight 6:25 AM CST 5:49 PM CST
Astronomical Twilight 5:51 AM CST 6:24 PM CST
Moon 9:34 PM CST (12/3) 10:53 AM CST (12/3)
Length of Visible Light 10h 12m
Length of Day
9h 07m
Waning Gibbous, 78% of the Moon is Illuminated
Dec 3
Waning Gibbous
Dec 6
Last Quarter
Dec 13
New
Dec 19
First Quarter
Dec 28
Full

Hourly Weather History & Observations

Time (CST) Temp. Windchill Dew Point Humidity Pressure Visibility Wind Dir Wind Speed Gust Speed Precip Events Conditions
12:15 AM 42.8 °F 34.3 °F 39.2 °F 87% 29.77 in 2.5 mi South 19.6 mph - N/A   Overcast
12:55 AM 44.6 °F 36.1 °F 41.0 °F 87% 29.75 in 3.0 mi South 21.9 mph 27.6 mph N/A   Overcast
1:15 AM 44.6 °F 37.2 °F 41.0 °F 87% 29.74 in 4.0 mi South 17.3 mph - N/A   Overcast
1:35 AM 44.6 °F 36.6 °F 41.0 °F 87% 29.73 in 4.0 mi South 19.6 mph 24.2 mph N/A   Overcast
1:55 AM 44.6 °F 37.4 °F 41.0 °F 87% 29.73 in 4.0 mi SSE 16.1 mph - N/A   Overcast
2:15 AM 44.6 °F 38.1 °F 42.8 °F 93% 29.71 in 4.0 mi SSE 13.8 mph - N/A   Overcast
2:35 AM 44.6 °F 37.4 °F 42.8 °F 93% 29.71 in 3.0 mi SSE 16.1 mph - N/A   Overcast
2:55 AM 46.4 °F 40.4 °F 42.8 °F 87% 29.71 in 1.2 mi SSE 13.8 mph - N/A   Overcast
3:15 AM 46.4 °F 40.1 °F 44.6 °F 93% 29.69 in 0.8 mi SSE 15.0 mph - N/A   Overcast
3:35 AM 46.4 °F 40.1 °F 44.6 °F 93% 29.69 in 0.8 mi SSE 15.0 mph - N/A   Overcast
3:55 AM 46.4 °F 39.8 °F 44.6 °F 93% 29.66 in 0.8 mi SSE 16.1 mph - N/A   Overcast
4:15 AM 46.4 °F 39.0 °F 44.6 °F 93% 29.66 in 1.0 mi SSE 19.6 mph 24.2 mph N/A   Overcast
4:35 AM 48.2 °F - 44.6 °F 87% 29.65 in 1.2 mi SSE 19.6 mph 24.2 mph N/A   Overcast
4:55 AM 48.2 °F - 44.6 °F 87% 29.65 in 1.8 mi South 16.1 mph 23.0 mph N/A   Overcast
5:15 AM 48.2 °F - 46.4 °F 93% 29.63 in 2.0 mi South 19.6 mph 26.5 mph N/A   Overcast
5:35 AM 48.2 °F - 46.4 °F 93% 29.62 in 1.5 mi South 18.4 mph 23.0 mph N/A   Overcast
5:55 AM 48.2 °F - 46.4 °F 93% 29.61 in 1.0 mi South 19.6 mph - N/A   Overcast
6:15 AM 48.2 °F - 46.4 °F 93% 29.60 in 0.8 mi South 16.1 mph - N/A   Overcast
6:35 AM 48.2 °F - 46.4 °F 93% 29.59 in 0.8 mi South 17.3 mph 23.0 mph N/A   Overcast
6:55 AM 50.0 °F - 48.2 °F 94% 29.59 in 1.0 mi South 18.4 mph 24.2 mph N/A   Overcast
7:15 AM 50.0 °F - 48.2 °F 94% 29.58 in 1.5 mi South 17.3 mph - N/A   Overcast
7:35 AM 51.8 °F - 48.2 °F 88% 29.57 in 1.0 mi South 18.4 mph - N/A   Overcast
7:55 AM 51.8 °F - 48.2 °F 88% 29.58 in 0.8 mi South 18.4 mph - N/A   Overcast
8:15 AM 51.8 °F - 50.0 °F 94% 29.58 in 1.5 mi South 17.3 mph - N/A   Overcast
8:35 AM 53.6 °F - 50.0 °F 88% 29.58 in 1.8 mi South 15.0 mph - N/A   Overcast
8:55 AM 53.6 °F - 51.8 °F 94% 29.58 in 3.0 mi SSW 15.0 mph - N/A   Overcast
9:15 AM 53.6 °F - 51.8 °F 94% 29.57 in 3.0 mi SSW 15.0 mph - N/A   Overcast
9:35 AM 55.4 °F - 51.8 °F 88% 29.58 in 4.0 mi SSW 12.7 mph 19.6 mph N/A   Overcast
9:55 AM 55.4 °F - 51.8 °F 88% 29.59 in 5.0 mi SW 17.3 mph 21.9 mph N/A   Overcast
10:15 AM 55.4 °F - 50.0 °F 82% 29.59 in 7.0 mi SW 16.1 mph - N/A   Overcast
10:35 AM 55.4 °F - 48.2 °F 77% 29.59 in 9.0 mi SW 16.1 mph 21.9 mph N/A   Overcast
10:55 AM 55.4 °F - 46.4 °F 72% 29.60 in 10.0 mi WSW 18.4 mph 24.2 mph N/A   Overcast
11:15 AM 55.4 °F - 46.4 °F 72% 29.60 in 9.0 mi WSW 17.3 mph 24.2 mph N/A   Overcast
11:35 AM 53.6 °F - 44.6 °F 72% 29.62 in 9.0 mi West 20.7 mph 25.3 mph N/A   Overcast
11:55 AM 53.6 °F - 42.8 °F 67% 29.63 in 10.0 mi WNW 16.1 mph 24.2 mph N/A   Mostly Cloudy
12:15 PM 55.4 °F - 41.0 °F 58% 29.63 in 10.0 mi WNW 20.7 mph 25.3 mph N/A   Scattered Clouds
12:35 PM 53.6 °F - 39.2 °F 58% 29.64 in 10.0 mi NW 20.7 mph 26.5 mph N/A   Clear
12:55 PM 53.6 °F - 39.2 °F 58% 29.66 in 10.0 mi NNW 20.7 mph 28.8 mph N/A   Clear
1:15 PM 55.4 °F - 39.2 °F 54% 29.66 in 10.0 mi NW 26.5 mph 29.9 mph N/A   Clear
1:35 PM 55.4 °F - 39.2 °F 54% 29.68 in 10.0 mi NW 20.7 mph - N/A   Clear
1:55 PM 55.4 °F - 39.2 °F 54% 29.68 in 10.0 mi NW 23.0 mph 26.5 mph N/A   Clear
2:15 PM 57.2 °F - 39.2 °F 51% 29.70 in 10.0 mi NNW 20.7 mph 26.5 mph N/A   Clear
2:35 PM 55.4 °F - 37.4 °F 51% 29.71 in 10.0 mi NW 20.7 mph 27.6 mph N/A   Mostly Cloudy
2:55 PM 55.4 °F - 37.4 °F 51% 29.73 in 10.0 mi NW 21.9 mph 27.6 mph N/A   Scattered Clouds
3:15 PM 55.4 °F - 37.4 °F 51% 29.75 in 10.0 mi NW 19.6 mph 25.3 mph N/A   Partly Cloudy
3:35 PM 53.6 °F - 37.4 °F 54% 29.76 in 10.0 mi NW 21.9 mph 28.8 mph N/A   Clear
3:55 PM 53.6 °F - 35.6 °F 51% 29.78 in 10.0 mi NW 12.7 mph 17.3 mph N/A   Clear
4:15 PM 51.8 °F - 35.6 °F 54% 29.79 in 10.0 mi WNW 13.8 mph - N/A   Clear
4:35 PM 51.8 °F - 32.0 °F 47% 29.81 in 10.0 mi NW 17.3 mph 23.0 mph N/A   Clear
4:55 PM 48.2 °F - 30.2 °F 50% 29.82 in 10.0 mi NW 12.7 mph - N/A   Clear
5:15 PM 46.4 °F 41.5 °F 30.2 °F 53% 29.84 in 10.0 mi WNW 10.4 mph - N/A   Clear
5:35 PM 46.4 °F 41.5 °F 30.2 °F 53% 29.85 in 10.0 mi West 10.4 mph - N/A   Clear
5:55 PM 44.6 °F 39.7 °F 28.4 °F 53% 29.86 in 10.0 mi West 9.2 mph - N/A   Clear
6:15 PM 44.6 °F 39.2 °F 28.4 °F 53% 29.87 in 10.0 mi West 10.4 mph - N/A   Clear
6:35 PM 42.8 °F 38.0 °F 28.4 °F 57% 29.89 in 10.0 mi West 8.1 mph - N/A   Clear
6:55 PM 42.8 °F 38.0 °F 26.6 °F 53% 29.89 in 10.0 mi West 8.1 mph - N/A   Clear
7:15 PM 42.8 °F 35.8 °F 26.6 °F 53% 29.90 in 10.0 mi WNW 13.8 mph - N/A   Clear
7:35 PM 46.4 °F 40.4 °F 26.6 °F 46% 29.91 in 10.0 mi WNW 13.8 mph - N/A   Clear
7:55 PM 44.6 °F 38.4 °F 26.6 °F 49% 29.91 in 10.0 mi WNW 12.7 mph - N/A   Clear
8:15 PM 44.6 °F 39.7 °F 24.8 °F 46% 29.92 in 10.0 mi West 9.2 mph - N/A   Clear
8:35 PM 42.8 °F 36.6 °F 24.8 °F 49% 29.92 in 10.0 mi West 11.5 mph - N/A   Clear
8:55 PM 42.8 °F 37.0 °F 24.8 °F 49% 29.94 in 10.0 mi West 10.4 mph - N/A   Clear
9:15 PM 42.8 °F 37.0 °F 24.8 °F 49% 29.94 in 10.0 mi WNW 10.4 mph - N/A   Clear
9:35 PM 42.8 °F 37.5 °F 23.0 °F 46% 29.95 in 10.0 mi West 9.2 mph - N/A   Clear
9:55 PM 41.0 °F 34.7 °F 23.0 °F 49% 29.96 in 10.0 mi West 10.4 mph - N/A   Clear
10:15 PM 39.2 °F 34.2 °F 23.0 °F 52% 29.97 in 10.0 mi WSW 6.9 mph - N/A   Clear
10:35 PM 35.6 °F 29.2 °F 21.2 °F 56% 29.98 in 10.0 mi WSW 8.1 mph - N/A   Clear
10:55 PM 35.6 °F 28.0 °F 23.0 °F 60% 29.98 in 10.0 mi WSW 10.4 mph - N/A   Clear
11:15 PM 35.6 °F 28.0 °F 23.0 °F 60% 29.98 in 10.0 mi WSW 10.4 mph - N/A   Clear
11:35 PM 37.4 °F 30.8 °F 23.0 °F 56% 29.98 in 10.0 mi WSW 9.2 mph - N/A   Clear
11:55 PM 35.6 °F 28.0 °F 23.0 °F 60% 29.99 in 10.0 mi WSW 10.4 mph - N/A   Clear